Weather History for KMBG - March, 2014

Change the Weather History Date:

Monday, March 24, 2014

  Actual Average Record
Temperature  
Mean Temperature 23 °F 35 °F  
Max Temperature 32 °F 47 °F 81 °F (1939)
Min Temperature 13 °F 24 °F -8 °F (1913)
Degree Days  
Heating Degree Days 42 30  
Month to date heating degree days 911 833  
Since 1 July heating degree days 7451 6808  
Cooling Degree Days 0 0  
Month to date cooling degree days 0 0  
Year to date cooling degree days 0 0  
Moisture  
Dew Point 18 °F    
Average Humidity 73    
Maximum Humidity 100    
Minimum Humidity 45    
Precipitation  
Precipitation 0.01 in 0.03 in 1.08 in (1989)
Month to date precipitation 0.35 0.66  
Year to date precipitation 0.96 1.39  
Snow  
Snow 0.40 in - - ()
Month to date snowfall 5.6  
Since 1 July snowfall 37.0  
Snow Depth 1.00 in    
Sea Level Pressure  
Sea Level Pressure 30.29 in    
Wind  
Wind Speed 11 mph (NNW)    
Max Wind Speed 28 mph    
Max Gust Speed 37 mph    
Visibility 8 miles    
Events Snow    
T = Trace of Precipitation, MM = Missing Value Source: NWS Daily Summary

Daily Weather History Graph

Daily Weather History Graph

Search for Another Location

Airport or City:

Trip Planner

Search our weather history database for the weather conditions in past years. The results will help you decide how hot, cold, wet, or windy it might be!

Date:

Astronomy

Mar. 24, 2014 Rise Set
Actual Time 7:36 AM CDT 7:59 PM CDT
Civil Twilight 7:07 AM CDT 8:29 PM CDT
Nautical Twilight 6:32 AM CDT 9:04 PM CDT
Astronomical Twilight 5:56 AM CDT 9:40 PM CDT
Moon 3:25 AM CDT (3/24) 1:10 PM CDT (3/24)
Length of Visible Light 13h 21m
Length of Day
12h 22m
Last Quarter, 43% of the Moon is Illuminated
Mar 24
Last Quarter
Mar 30
New
Apr 7
First Quarter
Apr 15
Full
Apr 22
Last Quarter

Hourly Weather History & Observations

Time (CDT) Temp. Windchill Dew Point Humidity Pressure Visibility Wind Dir Wind Speed Gust Speed Precip Events Conditions
12:52 AM 25.0 °F - 24.1 °F 96% 30.29 in 10.0 mi Calm Calm - N/A   Overcast
1:43 AM 25.0 °F - 23.0 °F 92% 30.21 in 6.0 mi Calm Calm - 0.00 in Snow Light Snow
1:52 AM 25.0 °F 20.7 °F 23.0 °F 92% 30.29 in 8.0 mi NW 3.5 mph - 0.00 in   Overcast
2:41 AM 25.0 °F 19.3 °F 23.0 °F 92% 30.23 in 9.0 mi NW 4.6 mph - 0.00 in   Overcast
2:52 AM 25.0 °F 18.1 °F 23.0 °F 92% 30.29 in 7.0 mi NNW 5.8 mph - 0.00 in Snow Light Snow
3:10 AM 26.1 °F 19.4 °F 23.0 °F 88% 30.22 in 7.0 mi NNW 5.8 mph - 0.00 in Snow Light Snow
3:46 AM 26.6 °F 20.0 °F 23.0 °F 86% 30.22 in 2.5 mi NW 5.8 mph - 0.00 in Snow Light Snow
3:52 AM 26.1 °F 20.5 °F 23.0 °F 88% 30.29 in 2.5 mi NW 4.6 mph - 0.00 in Snow Light Snow
4:07 AM 26.1 °F 19.4 °F 23.0 °F 88% 30.22 in 3.0 mi NW 5.8 mph - 0.01 in Snow Light Snow
4:22 AM 26.1 °F 19.4 °F 23.0 °F 88% 30.23 in 2.0 mi NNW 5.8 mph - 0.01 in Snow Light Snow
4:29 AM 25.0 °F 18.1 °F 23.0 °F 92% 30.22 in 3.0 mi NNW 5.8 mph - 0.01 in Snow Light Snow
4:37 AM 25.0 °F 17.1 °F 23.0 °F 92% 30.23 in 5.0 mi NNW 6.9 mph - 0.01 in Snow Light Snow
4:47 AM 24.8 °F 14.0 °F 23.0 °F 93% 30.23 in 8.0 mi North 11.5 mph - 0.01 in Snow Light Snow
4:52 AM 25.0 °F 14.8 °F 23.0 °F 92% 30.30 in 9.0 mi North 10.4 mph - 0.01 in   Overcast
5:17 AM 25.0 °F 16.3 °F 21.9 °F 88% 30.23 in 10.0 mi NNW 8.1 mph - N/A   Overcast
5:36 AM 24.1 °F 18.2 °F 21.9 °F 91% 30.23 in 10.0 mi NNW 4.6 mph - N/A   Overcast
5:52 AM 24.1 °F 15.2 °F 21.9 °F 91% 30.31 in 10.0 mi North 8.1 mph - N/A   Overcast
6:09 AM 24.1 °F 16.0 °F 21.0 °F 88% 30.24 in 10.0 mi NNW 6.9 mph - N/A   Overcast
6:52 AM 15.1 °F 6.4 °F 14.0 °F 95% 30.33 in 10.0 mi NNW 5.8 mph - N/A   Clear
7:45 AM 14.0 °F 2.9 °F 12.0 °F 92% 30.27 in 9.0 mi North 8.1 mph - N/A   Partly Cloudy
7:52 AM 12.9 °F 2.6 °F 12.0 °F 96% 30.36 in 9.0 mi NNW 6.9 mph - N/A   Partly Cloudy
8:52 AM 19.0 °F 11.1 °F 14.0 °F 81% 30.37 in 10.0 mi NW 5.8 mph - N/A   Overcast
9:52 AM 19.9 °F 11.1 °F 12.9 °F 74% 30.37 in 10.0 mi NW 6.9 mph - N/A   Overcast
10:52 AM 23.0 °F 12.4 °F 15.1 °F 72% 30.38 in 10.0 mi North 10.4 mph - N/A   Mostly Cloudy
11:52 AM 26.1 °F 16.2 °F 16.0 °F 66% 30.37 in 10.0 mi North 10.4 mph - N/A   Clear
12:52 PM 28.0 °F 20.8 °F 16.0 °F 61% 30.36 in 10.0 mi NW 6.9 mph - N/A   Overcast
1:52 PM 28.9 °F 18.2 °F 16.0 °F 58% 30.35 in 10.0 mi WNW 13.8 mph - N/A   Overcast
2:15 PM 30.0 °F 20.0 °F 18.0 °F 61% 30.26 in 8.0 mi NNW 12.7 mph - 0.00 in Snow Light Snow
2:44 PM 30.0 °F 18.7 °F 16.0 °F 56% 30.25 in 10.0 mi NW 16.1 mph - 0.00 in   Overcast
2:52 PM 30.9 °F 19.1 °F 16.0 °F 54% 30.32 in 10.0 mi WNW 18.4 mph 26.5 mph 0.00 in   Overcast
3:52 PM 32.0 °F 20.5 °F 14.0 °F 48% 30.29 in 10.0 mi WNW 18.4 mph 28.8 mph N/A   Mostly Cloudy
4:52 PM 30.9 °F 17.8 °F 12.9 °F 47% 30.28 in 10.0 mi NNW 23.0 mph 32.2 mph N/A   Scattered Clouds
5:52 PM 28.9 °F 16.9 °F 17.1 °F 61% 30.29 in 10.0 mi NW 17.3 mph 26.5 mph 0.00 in   Mostly Cloudy
6:52 PM 27.0 °F 14.7 °F 14.0 °F 58% 30.30 in 10.0 mi NNW 16.1 mph 33.4 mph N/A   Mostly Cloudy
7:52 PM 27.0 °F 13.9 °F 8.1 °F 45% 30.31 in 10.0 mi NNW 18.4 mph 25.3 mph N/A   Scattered Clouds
8:52 PM 24.1 °F 12.5 °F 12.9 °F 62% 30.33 in 10.0 mi NNW 12.7 mph - N/A   Clear
9:52 PM 21.0 °F 9.9 °F 12.9 °F 71% 30.36 in 10.0 mi NNW 10.4 mph - N/A   Clear
10:52 PM 19.0 °F 6.1 °F 9.0 °F 65% 30.38 in 10.0 mi NNW 12.7 mph 19.6 mph N/A   Clear
11:52 PM 18.0 °F 4.8 °F 7.0 °F 62% 30.40 in 10.0 mi North 12.7 mph - N/A   Clear